This demonstration page uses our WeatherBlox Daily Observations layout. Learn more.

Hourly Observations for November 10, 2016

Temp ( °F °C ) Dew Point ( °F °C ) Humidity (%) Winds ( mph kmh ) Pressure ( in mb ) Visibility ( mi km ) Precip ( " mm )
12:54 am 00:54 Clear 45 7.2 35 1.7 68 68 SSW 6 9 30.25 1025 10 16.0934 0 0
1:54 am 01:54 Clear 43 6.1 35 1.7 74 74 SSW 7 11 30.24 1024 10 16.0934 0 0
2:54 am 02:54 Clear 39 3.9 33 0.6 79 79 SSW 5 7 30.23 1024 10 16.0934 0 0
3:54 am 03:54 Clear 41 5 34 1.1 76 76 S 6 9 30.21 1023 10 16.0934 0 0
4:54 am 04:54 Clear 41 5 34 1.1 76 76 S 7 11 30.19 1023 10 16.0934 0 0
5:54 am 05:54 Clear 41 5 34 1.1 76 76 SSW 7 11 30.19 1023 10 16.0934 0 0
6:54 am 06:54 Clear 40 4.4 34 1.1 79 79 SSW 8 13 30.19 1022 10 16.0934 0 0
7:54 am 07:54 Sunny 41 5 35 1.7 79 79 S 7 11 30.19 1022 10 16.0934 0 0
8:54 am 08:54 Sunny 47 8.3 37 2.8 69 69 SSW 14 22 30.18 1022 10 16.0934 0 0
9:54 am 09:54 Sunny 53 11.7 38 3.3 57 57 SSW 14 22 30.16 1021 10 16.0934 0 0
10:54 am 10:54 Sunny 60 15.6 38 3.3 44 44 SW 12 19 30.14 1021 10 16.0934 0 0
11:54 am 11:54 Sunny 65 18.3 37 2.8 36 36 WSW 14 22 30.1 1019 10 16.0934 0 0
12:54 pm 12:54 Sunny 67 19.4 38 3.3 35 35 WSW 14 22 30.1 1019 10 16.0934 0 0
1:54 pm 13:54 Sunny 69 20.6 38 3.3 32 32 WSW 12 19 30.08 1019 10 16.0934 0 0
2:54 pm 14:54 Sunny 71 21.7 37 2.8 29 29 W 12 19 30.08 1019 10 16.0934 0 0
3:54 pm 15:54 Sunny 70 21.1 38 3.3 31 31 WNW 6 9 30.11 1020 10 16.0934 0 0
4:54 pm 16:54 Sunny 68 20 38 3.3 33 33 Calm 30.12 1020 10 16.0934 0 0
5:54 pm 17:54 Clear 58 14.4 40 4.4 51 51 NNW 3 6 30.16 1021 10 16.0934 0 0
6:54 pm 18:54 Clear 51 10.6 39 3.9 64 64 NW 3 6 30.19 1023 10 16.0934 0 0
7:54 pm 19:54 Clear 51 10.6 40 4.4 66 66 N 9 15 30.23 1024 10 16.0934 0 0
8:54 pm 20:54 Clear 54 12.2 43 6.1 67 67 N 12 19 30.24 1024 10 16.0934 0 0
9:54 pm 21:54 Clear 53 11.7 42 5.6 66 66 N 13 20 30.27 1025 10 16.0934 0 0
10:54 pm 22:54 Clear 51 10.6 42 5.6 71 71 N 12 19 30.28 1026 10 16.0934 0 0
11:54 pm 23:54 Clear 50 10 40 4.4 68 68 N 12 19 30.31 1026 10 16.0934 0 0

Powered by AerisWeather